Flag for Canada Weather past 2 weeks in Edmonton, Alberta, Canada

Now
63 °F

Mild.


Feels Like: 63 °F
Forecast: 51 / 67 °F
Wind: 18 mph from Southeast

Location: Edmonton Municipal

Current Time: May 30, 2015 at 5:32:15 PM

Latest Report: May 30, 2015 at 5:00 PM


Visibility: N/A

Pressure: 30.00 "Hg

Humidity: 35%

Dew point: 35 °F

Location of EdmontonLocation

Historic Weather in Edmonton — Graph

°F

Edmonton temperature yesterday

Maximum temperature yesterday: 61 °F (at 3:00 PM)
Minimum temperature yesterday: 41 °F (at 5:00 AM)
Average temperature yesterday: 52 °F

Past Weeks' High & Low Weather Summary

 TemperatureHumidityPressure
High80 °F (May 23, 4:00 PM)87% (May 16, 8:00 AM)30.51 "Hg (May 16, 8:00 AM)
Low31 °F (May 17, 5:00 AM)11% (May 22, 5:00 PM)29.82 "Hg (May 25, 6:00 PM)
Average59 °F35%30.12 "Hg
* Reported May 15 4:00 PM — May 30 4:00 PM, Edmonton, Weather by CustomWeather, © 2015

Note: Actual official high and low records may vary slightly from our data, if they occured in-between our weather recording intervals... More about our weather records

Advertising

Edmonton weather history for previous 24 hours

 ConditionsComfort  
Time TempWeatherWind HumidityBarometerVisibility
4:00 PM
Sat, May 30
62 °FMild.17 mph36%30.02 "HgN/A
3:00 PM61 °FRefreshingly cool.15 mph42%30.04 "HgN/A
2:00 PM59 °FRefreshingly cool.14 mph45%30.06 "HgN/A
1:00 PM58 °FRefreshingly cool.14 mph49%30.08 "HgN/A
12:00 PM55 °FCool.14 mph56%30.09 "HgN/A
11:00 AM51 °FCool.13 mph62%30.11 "HgN/A
10:00 AM52 °FCool.14 mph55%30.12 "HgN/A
9:00 AM51 °FCool.15 mph51%30.12 "HgN/A
8:00 AM52 °FCool.15 mph46%30.12 "HgN/A
7:00 AM52 °FCool.13 mph44%30.12 "HgN/A
6:00 AM52 °FCool.12 mph44%30.13 "HgN/A
5:00 AM52 °FCool.8 mph42%30.14 "HgN/A
4:00 AM53 °FCool.13 mph40%30.14 "HgN/A
3:00 AM53 °FCool.13 mph40%30.16 "HgN/A
2:00 AM54 °FCool.12 mph41%30.16 "HgN/A
1:00 AM54 °FCool.13 mph43%30.18 "HgN/A
12:00 AM54 °FCool.10 mph43%30.19 "HgN/A
11:00 PM
Fri, May 29
54 °FCool.13 mph42%30.21 "HgN/A
10:00 PM55 °FCool.9 mph39%30.21 "HgN/A
9:00 PM55 °FRefreshingly cool.9 mph37%30.22 "HgN/A
8:00 PM56 °FRefreshingly cool.8 mph34%30.24 "HgN/A
7:00 PM54 °FCool.10 mph43%30.26 "HgN/A
6:00 PM56 °FRefreshingly cool.12 mph32%30.26 "HgN/A
5:00 PM59 °FRefreshingly cool.10 mph30%30.27 "HgN/A
Weather by CustomWeather, © 2015

See weather overviewHow to use our weather pages